K3HM Weather Reports


Display with metric or nautical units.
time (UTC)temp
F
wind
direction
speed
MPH
gust
MPH
rain 1hr
in
rain 24hr
in
rain mn
in
humidity
%
barometer
mb
20260507174240 56 263 2.0 3.0 0.00 0.00 0.00 47 1011.4
20260507173738 55 351 4.0 6.0 0.00 0.00 0.00 51 1011.4
20260507173235 56 219 5.0 6.0 0.00 0.00 0.00 46 1011.5
20260507172731 54 285 4.0 4.0 0.00 0.00 0.00 46 1011.5
20260507172228 55 0 2.0 4.0 0.00 0.00 0.00 49 1011.7
20260507171728 55 274 5.0 7.0 0.00 0.00 0.00 44 1011.6
20260507171226 53 36 2.0 3.0 0.00 0.00 0.00 48 1011.8
20260507170722 55 210 4.0 7.0 0.00 0.00 0.00 48 1011.8
20260507170220 55 29 2.0 3.0 0.00 0.00 0.00 51 1011.9
20260507165715 53 45 2.0 4.0 0.00 0.00 0.00 48 1011.9
20260507165211 53 211 5.0 6.0 0.00 0.00 0.00 51 1012.0
20260507164707 55 212 4.0 6.0 0.00 0.00 0.00 47 1012.2
20260507164205 55 262 4.0 7.0 0.00 0.00 0.00 45 1012.3
20260507163702 55 356 0.0 1.0 0.00 0.00 0.00 49 1011.9
20260507163200 53 351 2.0 2.0 0.00 0.00 0.00 45 1012.0
20260507162655 54 10 4.0 4.0 0.00 0.00 0.00 47 1012.2
20260507162151 55 277 3.0 4.0 0.00 0.00 0.00 50 1012.2
20260507161648 54 289 2.0 3.0 0.00 0.00 0.00 50 1012.4
20260507161144 54 11 2.0 3.0 0.00 0.00 0.00 50 1012.4
20260507160641 53 13 2.0 4.0 0.00 0.00 0.00 50 1012.5
20260507160138 53 16 1.0 2.0 0.00 0.00 0.00 58 1012.5
20260507155633 53 29 4.0 7.0 0.00 0.00 0.00 47 1012.3
20260507155130 53 5 2.0 2.0 0.00 0.00 0.00 53 1012.5
20260507154627 54 21 1.0 1.0 0.00 0.00 0.00 48 1012.6
20260507154125 52 351 4.0 6.0 0.00 0.00 0.00 50 1012.4
20260507153620 52 271 2.0 2.0 0.00 0.00 0.00 48 1012.5
20260507153117 53 281 4.0 7.0 0.00 0.00 0.00 46 1012.5
20260507152613 53 283 2.0 4.0 0.00 0.00 0.00 50 1012.5
20260507152109 52 253 4.0 6.0 0.00 0.00 0.00 49 1012.5
20260507151606 52 26 3.0 3.0 0.00 0.00 0.00 46 1012.5
20260507151103 52 284 1.0 1.0 0.00 0.00 0.00 50 1012.7
20260507150600 51 339 3.0 3.0 0.00 0.00 0.00 47 1012.9
20260507150056 51 280 4.0 4.0 0.00 0.00 0.00 50 1013.0
20260507145551 53 19 1.0 2.0 0.00 0.00 0.00 51 1013.0
20260507145050 52 161 1.0 1.0 0.00 0.00 0.00 51 1013.0
20260507144546 52 355 1.0 1.0 0.00 0.00 0.00 51 1013.2
20260507144044 52 351 2.0 3.0 0.00 0.00 0.00 50 1013.2
20260507143540 51 104 1.0 1.0 0.00 0.00 0.00 50 1013.3
20260507143038 51 12 3.0 6.0 0.00 0.00 0.00 56 1013.0
20260507142533 51 255 4.0 6.0 0.00 0.00 0.00 53 1013.3
20260507142030 50 89 4.0 4.0 0.00 0.00 0.00 56 1013.3
20260507141526 50 21 2.0 6.0 0.00 0.00 0.00 56 1013.3
20260507141023 50 334 2.0 2.0 0.00 0.00 0.00 56 1013.5
20260507140520 50 20 2.0 3.0 0.00 0.00 0.00 57 1013.8
20260507140018 50 242 2.0 3.0 0.00 0.00 0.00 54 1013.7
20260507135514 50 289 1.0 2.0 0.00 0.00 0.00 58 1013.9
20260507135011 49 359 4.0 4.0 0.00 0.00 0.00 59 1013.8
20260507134508 49 12 2.0 3.0 0.00 0.00 0.00 58 1014.0
20260507134003 49 311 2.0 2.0 0.00 0.00 0.00 60 1013.9
20260507133500 48 31 2.0 2.0 0.00 0.00 0.00 58 1014.0
20260507132958 48 320 2.0 2.0 0.00 0.00 0.00 62 1014.1
20260507132454 48 324 3.0 3.0 0.00 0.00 0.00 60 1014.0
20260507131951 48 35 2.0 3.0 0.00 0.00 0.00 60 1013.8
20260507131448 47 351 1.0 2.0 0.00 0.00 0.00 62 1014.0
20260507130944 48 289 3.0 4.0 0.00 0.00 0.00 61 1014.0
20260507130442 48 273 2.0 2.0 0.00 0.00 0.00 61 1013.8
20260507125941 48 14 1.0 1.0 0.00 0.00 0.00 64 1014.0
20260507125438 47 307 2.0 3.0 0.00 0.00 0.00 63 1013.9
20260507124935 47 31 4.0 4.0 0.00 0.00 0.00 63 1014.1
20260507124431 46 310 1.0 2.0 0.00 0.00 0.00 63 1014.0
20260507123930 46 3 2.0 2.0 0.00 0.00 0.00 63 1013.9
20260507123427 46 270 1.0 1.0 0.00 0.00 0.00 65 1013.9
20260507122924 45 35 3.0 4.0 0.00 0.00 0.00 67 1014.0
20260507122418 45 7 2.0 3.0 0.00 0.00 0.00 69 1014.0
20260507121915 45 1 1.0 2.0 0.00 0.00 0.00 68 1013.9
20260507121410 44 46 1.0 2.0 0.00 0.00 0.00 69 1014.0
20260507120907 44 14 2.0 3.0 0.00 0.00 0.00 68 1013.9
20260507120404 44 333 5.0 7.0 0.00 0.00 0.00 71 1013.9
20260507115900 43 284 3.0 3.0 0.00 0.00 0.00 75 1014.0
20260507115356 42 354 0.0 1.0 0.00 0.00 0.00 77 1013.9
20260507114852 41 66 0.0 1.0 0.00 0.00 0.00 82 1013.9
20260507114349 40 102 1.0 1.0 0.00 0.00 0.00 85 1014.0
20260507113846 39 301 1.0 1.0 0.00 0.00 0.00 88 1013.9
20260507113343 39 7 0.0 0.0 0.00 0.00 0.00 88 1013.8
20260507112841 38 7 0.0 0.0 0.00 0.00 0.00 89 1013.7
20260507112338 38 7 0.0 0.0 0.00 0.00 0.00 90 1013.8
20260507111836 37 7 0.0 0.0 0.00 0.00 0.00 90 1013.5
20260507111332 37 7 0.0 0.0 0.00 0.00 0.00 90 1013.5
20260507110828 38 7 0.0 0.0 0.00 0.00 0.00 89 1013.3
20260507110324 37 6 0.0 0.0 0.00 0.00 0.00 89 1013.4
20260507105821 37 7 0.0 0.0 0.00 0.00 0.00 92 1013.4
20260507105318 36 7 0.0 0.0 0.00 0.00 0.00 92 1013.3
20260507104815 36 7 0.0 0.0 0.00 0.00 0.00 92 1013.3
20260507104311 35 7 0.0 0.0 0.00 0.00 0.00 92 1013.1
20260507103807 35 6 0.0 0.0 0.00 0.00 0.00 91 1012.9
20260507103304 35 7 0.0 0.0 0.00 0.00 0.00 90 1013.1
20260507102800 35 6 0.0 0.0 0.00 0.00 0.00 90 1012.9
20260507102257 36 6 0.0 0.0 0.00 0.00 0.00 89 1012.8
20260507101753 36 6 0.0 0.0 0.00 0.00 0.00 87 1012.8
20260507101248 36 6 0.0 0.0 0.00 0.00 0.00 87 1013.1
20260507100745 36 6 0.0 0.0 0.00 0.00 0.00 88 1012.9
20260507100244 36 6 0.0 0.0 0.00 0.00 0.00 87 1012.9
20260507095741 37 6 0.0 0.0 0.00 0.00 0.00 87 1012.9
20260507095238 36 5 0.0 0.0 0.00 0.00 0.00 87 1013.0
20260507094735 37 5 0.0 0.0 0.00 0.00 0.00 86 1012.9
20260507094232 37 5 0.0 0.0 0.00 0.00 0.00 86 1012.8
20260507093729 37 5 0.0 0.0 0.00 0.00 0.00 85 1012.8
20260507093227 37 5 0.0 0.0 0.00 0.00 0.00 85 1012.7
20260507092725 38 5 0.0 0.0 0.00 0.00 0.00 84 1013.0
20260507092220 38 5 0.0 0.0 0.00 0.00 0.00 82 1012.9
20260507091717 39 5 0.0 0.0 0.00 0.00 0.00 81 1012.8
20260507091214 39 349 0.0 0.0 0.00 0.00 0.00 80 1012.9
20260507090709 40 347 0.0 0.0 0.00 0.00 0.00 79 1012.9
20260507090206 40 346 0.0 0.0 0.00 0.00 0.00 78 1012.8
20260507085703 40 345 0.0 0.0 0.00 0.00 0.00 78 1012.8
20260507085200 41 344 0.0 0.0 0.00 0.00 0.00 77 1012.7
20260507084657 41 326 1.0 1.0 0.00 0.00 0.00 75 1012.8
20260507084153 41 22 0.0 0.0 0.00 0.00 0.00 77 1012.7
20260507083650 41 8 1.0 2.0 0.00 0.00 0.00 76 1012.9
20260507083147 42 28 0.0 0.0 0.00 0.00 0.00 76 1012.8
20260507082643 42 5 0.0 1.0 0.00 0.00 0.00 77 1012.6
20260507082139 42 344 0.0 1.0 0.00 0.00 0.00 77 1012.8
20260507081636 42 11 0.0 0.0 0.00 0.00 0.00 77 1012.9
20260507081132 42 349 1.0 2.0 0.00 0.00 0.00 77 1013.2
20260507080629 42 331 1.0 2.0 0.00 0.00 0.00 76 1012.8
20260507080125 42 353 1.0 1.0 0.00 0.00 0.00 76 1013.0
20260507075625 42 352 1.0 1.0 0.00 0.00 0.00 76 1013.0
20260507075122 42 6 0.0 0.0 0.00 0.00 0.00 76 1012.8
20260507074619 42 357 1.0 2.0 0.00 0.00 0.00 75 1012.8
20260507074118 42 358 0.0 0.0 0.00 0.00 0.00 76 1012.7
20260507073613 42 313 0.0 1.0 0.00 0.00 0.00 76 1012.9
20260507073109 42 6 1.0 2.0 0.00 0.00 0.00 77 1012.6
20260507072607 42 320 1.0 1.0 0.00 0.00 0.00 76 1012.8
20260507072104 42 1 0.0 0.0 0.00 0.00 0.00 76 1012.7
20260507071602 42 5 0.0 0.0 0.00 0.00 0.00 79 1012.9
20260507071058 42 282 2.0 2.0 0.00 0.00 0.00 77 1013.0
20260507070555 42 21 0.0 0.0 0.00 0.00 0.00 78 1013.0
20260507070052 43 43 0.0 0.0 0.00 0.00 0.00 77 1012.9
20260507065548 42 28 2.0 2.0 0.00 0.00 0.00 77 1012.8
20260507065045 43 42 1.0 1.0 0.00 0.00 0.00 78 1012.8
20260507064543 43 22 2.0 3.0 0.00 0.00 0.00 77 1012.8
20260507064042 43 21 0.0 0.0 0.00 0.00 0.00 78 1012.9
20260507063538 43 20 2.0 2.0 0.00 0.00 0.00 78 1012.9
20260507063036 43 27 0.0 1.0 0.00 0.00 0.00 79 1013.0
20260507062532 43 10 0.0 0.0 0.00 0.00 0.00 80 1013.0
20260507062030 43 20 0.0 0.0 0.00 0.00 0.00 79 1012.9
20260507061528 43 0 0.0 1.0 0.00 0.00 0.00 80 1012.9
20260507061025 43 33 1.0 1.0 0.00 0.00 0.00 82 1013.0
20260507060523 43 2 0.0 0.0 0.00 0.00 0.00 81 1013.1
20260507060020 43 344 1.0 1.0 0.00 0.00 0.00 82 1013.3
20260507055520 43 6 0.0 0.0 0.00 0.00 0.00 82 1013.3
20260507055016 43 21 0.0 0.0 0.00 0.00 0.00 83 1013.2
20260507054512 43 11 2.0 3.0 0.00 0.00 0.00 83 1013.3
20260507054010 43 4 0.0 0.0 0.00 0.00 0.00 83 1013.3
20260507053507 44 17 0.0 0.0 0.00 0.00 0.00 83 1013.3
20260507053006 44 26 1.0 1.0 0.00 0.00 0.00 83 1013.5
20260507052503 44 22 0.0 0.0 0.00 0.00 0.00 84 1013.3
20260507051959 44 14 2.0 2.0 0.00 0.00 0.00 83 1013.3
20260507051457 44 17 0.0 1.0 0.00 0.00 0.00 84 1013.3
20260507050954 44 12 1.0 1.0 0.00 0.00 0.00 83 1013.4
20260507050450 44 7 2.0 3.0 0.00 0.00 0.00 84 1013.3
20260507045947 44 23 1.0 1.0 0.00 0.00 0.00 84 1013.4
20260507045444 44 23 1.0 1.0 0.00 0.00 0.00 84 1013.5
20260507044941 44 355 1.0 1.0 0.00 0.00 0.00 86 1013.5
20260507044438 44 22 1.0 1.0 0.00 0.00 0.00 88 1013.3
20260507043934 44 342 1.0 1.0 0.00 0.00 0.00 90 1013.2
20260507043430 44 344 1.0 2.0 0.00 0.00 0.00 90 1013.3
20260507042926 44 13 0.0 0.0 0.00 0.00 0.00 91 1013.4
20260507042423 44 14 0.0 0.0 0.00 0.00 0.00 91 1013.4
20260507041919 44 20 0.0 0.0 0.00 0.00 0.00 90 1013.3
20260507041416 44 4 0.0 0.0 0.00 0.00 0.00 91 1013.4
20260507040914 45 4 0.0 1.0 0.00 0.00 0.00 90 1013.3
20260507040409 45 5 2.0 2.0 0.00 0.00 0.00 90 1013.3
20260507035905 45 18 1.0 1.0 0.00 0.10 0.10 90 1013.4
20260507035401 45 11 2.0 2.0 0.00 0.10 0.10 89 1013.4
20260507034859 45 16 1.0 1.0 0.00 0.10 0.10 89 1013.2
20260507034355 45 356 1.0 3.0 0.00 0.10 0.10 89 1013.7
20260507033853 46 16 1.0 1.0 0.00 0.10 0.10 90 1013.7
20260507033351 46 0 1.0 1.0 0.00 0.10 0.10 89 1013.8
20260507032848 46 342 1.0 1.0 0.00 0.10 0.10 90 1013.7
20260507032344 46 352 0.0 1.0 0.00 0.10 0.10 89 1013.8
20260507031841 46 21 1.0 2.0 0.00 0.10 0.10 90 1013.7
20260507031338 46 15 0.0 0.0 0.00 0.10 0.10 91 1013.5
20260507030834 46 37 0.0 0.0 0.00 0.10 0.10 91 1013.3
20260507030332 46 6 0.0 1.0 0.00 0.10 0.10 92 1013.2
20260507025828 46 358 0.0 1.0 0.00 0.10 0.10 92 1013.2
20260507025326 46 11 1.0 1.0 0.00 0.10 0.10 92 1013.0
20260507024824 46 14 0.0 0.0 0.00 0.10 0.10 92 1013.4
20260507024320 46 27 1.0 1.0 0.00 0.10 0.10 92 1013.4
20260507023816 46 7 0.0 0.0 0.00 0.10 0.10 92 1013.2
20260507023313 46 340 0.0 1.0 0.00 0.10 0.10 92 1013.3
20260507022810 46 359 0.0 1.0 0.00 0.10 0.10 92 1013.3
20260507022307 46 25 0.0 0.0 0.00 0.10 0.10 92 1013.4
20260507021803 46 4 0.0 0.0 0.00 0.10 0.10 92 1013.4
20260507021259 46 29 0.0 0.0 0.00 0.10 0.10 92 1013.0
20260507020757 46 22 0.0 0.0 0.00 0.10 0.10 91 1012.9
20260507020253 46 303 1.0 1.0 0.00 0.10 0.10 92 1012.6
20260507015751 46 12 1.0 2.0 0.00 0.10 0.10 92 1012.5
20260507015248 46 5 0.0 0.0 0.00 0.10 0.10 92 1012.9
20260507014745 46 15 1.0 2.0 0.00 0.10 0.10 92 1012.7
20260507014241 46 25 1.0 1.0 0.00 0.10 0.10 92 1013.0
20260507013737 46 2 0.0 0.0 0.00 0.10 0.10 92 1012.9
20260507013235 46 25 0.0 0.0 0.00 0.10 0.10 92 1012.8
20260507012732 46 26 0.0 1.0 0.00 0.10 0.10 92 1012.6
20260507012227 46 29 1.0 2.0 0.00 0.10 0.10 92 1012.7
20260507011725 46 24 0.0 0.0 0.00 0.10 0.10 92 1012.6
20260507011222 46 10 0.0 0.0 0.00 0.10 0.10 92 1012.6
20260507010721 46 273 2.0 2.0 0.00 0.10 0.10 92 1012.9
20260507010217 46 26 2.0 2.0 0.00 0.10 0.10 92 1012.7
20260507005715 46 27 0.0 0.0 0.00 0.10 0.10 92 1012.8
20260507005211 46 22 2.0 3.0 0.00 0.10 0.10 92 1012.7
20260507004708 46 304 1.0 1.0 0.00 0.10 0.10 92 1013.0
20260507004206 46 304 0.0 1.0 0.00 0.10 0.10 93 1012.8
20260507003702 46 21 0.0 1.0 0.00 0.10 0.10 92 1012.9
20260507003157 46 333 1.0 2.0 0.00 0.10 0.10 92 1013.0
20260507002653 46 352 1.0 2.0 0.00 0.10 0.10 92 1013.1
20260507002149 46 293 2.0 3.0 0.00 0.10 0.10 92 1013.4
20260507001646 46 8 4.0 4.0 0.00 0.10 0.10 92 1013.2
20260507001144 46 54 1.0 2.0 0.00 0.10 0.10 92 1013.0
20260507000640 46 336 2.0 3.0 0.00 0.10 0.10 92 1013.1
20260507000135 46 7 2.0 3.0 0.00 0.10 0.10 93 1012.7
20260506235633 46 346 1.0 2.0 0.00 0.10 0.10 94 1012.7
20260506235133 46 3 3.0 3.0 0.00 0.10 0.10 94 1012.6
20260506234631 46 359 3.0 7.0 0.00 0.10 0.10 94 1012.9
20260506234128 46 8 2.0 4.0 0.00 0.10 0.10 95 1013.0
20260506233625 46 24 0.0 1.0 0.00 0.10 0.10 95 1012.7
20260506233122 46 29 2.0 4.0 0.00 0.10 0.10 96 1012.7
20260506232618 46 354 2.0 3.0 0.00 0.10 0.10 96 1012.6
20260506232113 47 353 1.0 3.0 0.00 0.10 0.10 96 1012.6
20260506231611 47 28 2.0 2.0 0.00 0.10 0.10 97 1012.4
20260506231109 47 13 2.0 2.0 0.00 0.10 0.10 97 1012.2
20260506230605 47 257 2.0 2.0 0.00 0.10 0.10 97 1012.0
20260506225559 47 24 2.0 3.0 0.00 0.10 0.10 97 1011.7
20260506225055 48 327 2.0 2.0 0.00 0.10 0.10 97 1011.8
20260506224552 48 281 4.0 6.0 0.00 0.10 0.10 97 1011.9
20260506224049 48 344 3.0 3.0 0.00 0.10 0.10 97 1011.9
20260506223545 48 309 2.0 3.0 0.00 0.10 0.10 97 1011.9
20260506223042 48 34 2.0 2.0 0.00 0.10 0.10 97 1011.9
20260506222538 48 294 1.0 2.0 0.00 0.10 0.10 97 1011.8
20260506222035 48 44 0.0 1.0 0.00 0.10 0.10 97 1011.6
20260506221532 48 70 0.0 1.0 0.00 0.10 0.10 97 1011.8
20260506221030 48 6 1.0 1.0 0.00 0.10 0.10 97 1011.6
20260506220526 48 315 2.0 3.0 0.00 0.10 0.10 97 1011.6
20260506220021 48 280 2.0 7.0 0.00 0.10 0.10 98 1011.6
20260506215519 48 10 2.0 4.0 0.00 0.10 0.10 98 1011.5
20260506215014 48 130 0.0 1.0 0.00 0.10 0.10 98 1011.6
20260506214512 48 342 1.0 2.0 0.00 0.10 0.10 98 1011.6
20260506214009 48 277 3.0 4.0 0.00 0.10 0.10 98 1011.5
20260506213507 48 344 2.0 3.0 0.00 0.10 0.10 98 1011.6
20260506213003 48 338 1.0 1.0 0.00 0.10 0.10 99 1011.3
20260506212500 48 305 2.0 4.0 0.00 0.10 0.10 99 1011.3
20260506211954 48 0 1.0 2.0 0.00 0.10 0.10 99 1011.0
20260506211451 48 355 2.0 3.0 0.00 0.10 0.10 99 1011.1
20260506210948 48 316 2.0 3.0 0.00 0.10 0.10 98 1010.8
20260506210444 48 326 2.0 3.0 0.00 0.10 0.10 98 1011.2
20260506205942 48 307 2.0 3.0 0.00 0.10 0.10 98 1011.0
20260506205438 49 14 0.0 1.0 0.00 0.10 0.10 98 1010.9
20260506204934 49 276 2.0 3.0 0.00 0.10 0.10 98 1010.9
20260506204432 49 333 3.0 3.0 0.00 0.10 0.10 98 1010.9
20260506203929 49 265 2.0 3.0 0.00 0.10 0.10 98 1010.8
20260506203426 49 350 1.0 1.0 0.00 0.10 0.10 98 1010.5
20260506202923 49 44 1.0 1.0 0.00 0.10 0.10 98 1010.4
20260506202420 49 37 1.0 2.0 0.00 0.10 0.10 98 1010.5
20260506201917 49 26 2.0 3.0 0.00 0.10 0.10 98 1010.4
20260506201414 50 336 3.0 4.0 0.00 0.10 0.10 98 1010.3
20260506200911 50 272 3.0 3.0 0.00 0.10 0.10 98 1010.1
20260506200407 50 2 0.0 0.0 0.00 0.10 0.10 99 1010.3
20260506195903 50 347 1.0 1.0 0.00 0.10 0.10 99 1010.5
20260506195401 50 284 1.0 2.0 0.07 0.10 0.10 99 1010.5
20260506194857 50 337 2.0 4.0 0.07 0.10 0.10 98 1010.7
20260506194354 50 323 2.0 2.0 0.00 0.09 0.09 98 1010.5
20260506193852 50 247 1.0 1.0 0.00 0.09 0.09 98 1010.5
20260506193348 50 336 4.0 6.0 0.00 0.09 0.09 98 1010.4
20260506192844 50 339 3.0 4.0 0.00 0.09 0.09 98 1010.3
20260506192341 51 341 1.0 1.0 0.00 0.09 0.09 98 1010.2
20260506191838 51 274 4.0 4.0 0.00 0.09 0.09 98 1010.2
20260506191335 51 297 3.0 4.0 0.00 0.09 0.09 97 1010.0
20260506190832 51 291 2.0 3.0 0.00 0.09 0.09 97 1010.0
20260506190328 52 9 1.0 1.0 0.00 0.09 0.09 97 1010.1
20260506185825 52 21 3.0 4.0 0.00 0.09 0.09 96 1010.3
20260506185322 53 330 3.0 4.0 0.00 0.09 0.09 95 1010.1
20260506184819 53 21 4.0 4.0 0.00 0.09 0.09 95 1010.0
20260506184316 53 277 3.0 4.0 0.00 0.09 0.09 95 1009.8
20260506183814 53 312 4.0 6.0 0.00 0.09 0.09 95 1009.9
20260506183309 54 20 2.0 3.0 0.00 0.09 0.09 95 1009.8
20260506182806 54 353 2.0 2.0 0.00 0.09 0.09 94 1009.9
20260506182306 54 344 4.0 6.0 0.00 0.09 0.09 95 1009.7
20260506181801 54 7 4.0 6.0 0.00 0.09 0.09 95 1009.8
20260506181258 54 275 2.0 3.0 0.00 0.09 0.09 95 1009.9
20260506180755 54 299 1.0 1.0 0.00 0.09 0.09 95 1010.0
20260506180251 54 279 3.0 4.0 0.00 0.09 0.09 95 1009.9
20260506175747 54 226 3.0 3.0 0.00 0.09 0.09 95 1009.9
20260506175244 54 354 1.0 2.0 0.00 0.09 0.09 96 1009.9
20260506174742 53 231 3.0 6.0 0.00 0.09 0.09 96 1009.6